Flag for Australia Weather past 2 weeks in Sydney, New South Wales, Australia

75 °F

Passing clouds.

Feels Like: 78 °F
Forecast: 58 / 84 °F
Wind: 10 mph from East

Location: Sydney Airport

Current Time: Oct 10, 2015 at 12:49:34 PM

Latest Report: Oct 10, 2015 at 12:00 PM

Visibility: N/A

Pressure: 30.33 "Hg

Humidity: 47%

Dew point: 54 °F

Location of SydneyLocation

Historic Weather in Sydney — Graph


Sydney temperature yesterday

Maximum temperature yesterday: 75 °F (at 11:00 AM)
Minimum temperature yesterday: 64 °F (at 12:00 AM)
Average temperature yesterday: 69 °F

Past Weeks' High & Low Weather Summary

High99 °F (Oct 5, 2:30 PM)100% (Oct 1, 9:00 PM)30.66 "Hg (Oct 1, 9:00 PM)
Low54 °F (Sep 27, 5:00 AM)8% (Oct 5, 2:30 PM)29.98 "Hg (Sep 29, 2:00 PM)
Average68 °F59%30.28 "Hg
* Reported Sep 25 10:00 AM — Oct 10 11:30 AM, Sydney, Weather by CustomWeather, © 2015

Note: Actual official high and low records may vary slightly from our data, if they occured in-between our weather recording intervals... More about our weather records


Sydney weather history for previous 24 hours

Time TempWeatherWind HumidityBarometerVisibility
11:30 AM
Sat, Oct 10
75 °FPassing clouds.10 mph54%30.33 "HgN/A
11:00 AM73 °FPassing clouds.8 mph61%30.36 "HgN/A
10:30 AM72 °FPassing clouds.6 mph69%30.36 "HgN/A
10:00 AM70 °FPassing clouds.No wind69%30.36 "HgN/A
9:30 AM68 °FPassing clouds.5 mph73%30.39 "HgN/A
9:00 AM66 °FPassing clouds.6 mph78%30.36 "HgN/A
8:00 AM64 °FSunny.5 mph83%30.36 "Hg10 mi
7:30 AM63 °FSunny.5 mph88%30.36 "Hg10 mi
7:00 AM63 °FSunny.3 mph83%30.36 "Hg10 mi
6:30 AM61 °FSunny.6 mph88%30.36 "Hg10 mi
6:00 AM63 °FClear.8 mph83%30.36 "Hg6 mi
5:00 AM61 °FClear.7 mph88%30.36 "Hg10 mi
4:30 AM61 °FClear.7 mph88%30.33 "Hg10 mi
4:00 AM61 °FClear.6 mph88%30.36 "Hg10 mi
3:30 AM63 °FClear.6 mph83%30.36 "Hg10 mi
3:00 AM63 °FClear.6 mph83%30.36 "Hg10 mi
2:30 AM63 °FClear.3 mph83%30.36 "Hg10 mi
2:00 AM63 °FClear.6 mph88%30.39 "Hg10 mi
1:30 AM63 °FClear.6 mph83%30.39 "Hg10 mi
1:00 AM63 °FClear.5 mph83%30.39 "Hg10 mi
12:30 AM64 °FClear.5 mph83%30.42 "Hg10 mi
12:00 AM66 °FClear.7 mph78%30.42 "Hg10 mi
11:30 PM
Fri, Oct 9
68 °FClear.8 mph69%30.39 "Hg10 mi
11:00 PM68 °FClear.8 mph73%30.42 "Hg10 mi
10:00 PM68 °FClear.15 mph73%30.39 "Hg10 mi
9:30 PM70 °FPartly cloudy.9 mph64%30.42 "HgN/A
9:00 PM70 °FPartly cloudy.12 mph64%30.42 "HgN/A
8:30 PM68 °FClear.9 mph69%30.42 "Hg10 mi
8:00 PM68 °FClear.10 mph69%30.39 "Hg10 mi
7:30 PM70 °FClear.12 mph64%30.39 "Hg10 mi
7:00 PM68 °FSunny.15 mph69%30.39 "Hg10 mi
6:30 PM72 °FSunny.15 mph61%30.36 "Hg10 mi
6:00 PM70 °FSunny.18 mph60%30.36 "Hg10 mi
5:30 PM72 °FSunny.20 mph57%30.36 "Hg10 mi
5:00 PM73 °FSunny.21 mph50%30.36 "Hg10 mi
4:30 PM73 °FSunny.20 mph50%30.36 "Hg10 mi
4:00 PM73 °FSunny.20 mph50%30.36 "Hg10 mi
3:00 PM73 °FSunny.17 mph44%30.39 "Hg10 mi
2:30 PM73 °FSunny.20 mph44%30.39 "Hg10 mi
2:00 PM73 °FSunny.18 mph44%30.42 "Hg10 mi
1:30 PM72 °FSunny.18 mph47%30.45 "Hg10 mi
1:00 PM73 °FSunny.14 mph41%30.45 "Hg10 mi
12:30 PM72 °FSunny.15 mph47%30.48 "Hg10 mi
12:00 PM73 °FPassing clouds.15 mph41%30.48 "HgN/A
Weather by CustomWeather, © 2015

See weather overviewHow to use our weather pages